owner,sensor,date,latitude,longitude,vertical_datum,direction_of_sea_water_velocity,sea_water_speed,upward_sea_water_velocity,qcFlag 
ADCP,ioos:station:wmo:42862:1,2013-12-02T12:07:00Z,27.5700,-92.3960,66.1,208.0,4.5,-1.1,'1111122,1111122,1111122' 
ADCP,ioos:station:wmo:42862:1,2013-12-04T16:37:00Z,27.5700,-92.3960,66.1,338.0,3.1,-4.4,'1111122,1111122,1111122' 
ADCP,ioos:station:wmo:42862:1,2013-12-04T17:17:00Z,27.5700,-92.3960,66.1,308.0,1.1,-2.9,'1111122,1111122,1111122' 
ADCP,ioos:station:wmo:42862:1,2013-12-04T17:47:00Z,27.5700,-92.3960,66.1,352.0,2.1,-2.0,'1111122,1111122,1111122' 
ADCP,ioos:station:wmo:42862:1,2013-12-04T18:07:00Z,27.5700,-92.3960,66.1,248.0,0.5,-3.4,'1111122,1111122,1111122' 
ADCP,ioos:station:wmo:42862:1,2013-12-04T18:47:00Z,27.5700,-92.3960,66.1,317.0,2.1,-2.0,'1111122,1111122,1111122' 
ADCP,ioos:station:wmo:42862:1,2013-12-04T19:17:00Z,27.5700,-92.3960,66.1,240.0,3.6,-0.7,'1111122,1111122,1111122' 
ADCP,ioos:station:wmo:42862:1,2013-12-04T20:17:00Z,27.5700,-92.3960,66.1,238.0,2.6,-1.7,'1111122,1111122,1111122' 
ADCP,ioos:station:wmo:42862:1,2013-12-04T20:47:00Z,27.5700,-92.3960,66.1,241.0,3.7,-2.3,'1111122,1111122,1111122' 
ADCP,ioos:station:wmo:42862:1,2013-12-04T21:17:00Z,27.5700,-92.3960,66.1,219.0,3.2,-2.4,'1111122,1111122,1111122' 
ADCP,ioos:station:wmo:42862:1,2013-12-04T21:47:00Z,27.5700,-92.3960,66.1,230.0,1.7,-1.0,'1111122,1111122,1111122' 
ADCP,ioos:station:wmo:42862:1,2013-12-04T22:17:00Z,27.5700,-92.3960,66.1,256.0,3.8,-1.2,'1111122,1111122,1111122' 
ADCP,ioos:station:wmo:42862:1,2013-12-04T23:17:00Z,27.5700,-92.3960,66.1,288.0,0.3,-1.1,'1111122,1111122,1111122' 
ADCP,ioos:station:wmo:42862:1,2013-12-04T23:47:00Z,27.5700,-92.3960,66.1,69.0,1.7,0.0,'1111122,1111122,1114422' 
ADCP,ioos:station:wmo:42862:1,2013-12-05T00:17:00Z,27.5700,-92.3960,66.1,171.0,1.9,0.0,'1111122,1111122,1114422' 
ADCP,ioos:station:wmo:42862:1,2013-12-05T00:37:00Z,27.5700,-92.3960,66.1,240.0,0.8,-0.8,'1111122,1111122,1111122' 
ADCP,ioos:station:wmo:42862:1,2013-12-05T01:17:00Z,27.5700,-92.3960,66.1,12.0,5.3,-0.9,'1111122,1111122,1111122' 
ADCP,ioos:station:wmo:42862:1,2013-12-05T01:47:00Z,27.5700,-92.3960,66.1,39.0,2.2,0.0,'1111122,1111122,1114422' 
ADCP,ioos:station:wmo:42862:1,2013-12-05T02:07:00Z,27.5700,-92.3960,66.1,349.0,3.6,-0.4,'1111122,1111122,1111122' 
ADCP,ioos:station:wmo:42862:1,2013-12-05T02:47:00Z,27.5700,-92.3960,66.1,349.0,7.1,-1.2,'1111122,1111122,1111122' 
ADCP,ioos:station:wmo:42862:1,2013-12-05T03:17:00Z,27.5700,-92.3960,66.1,355.0,4.5,-1.5,'1111122,1111122,1111122' 
ADCP,ioos:station:wmo:42862:1,2013-12-05T03:47:00Z,27.5700,-92.3960,66.1,355.0,4.2,-0.9,'1111122,1111122,1111122' 
ADCP,ioos:station:wmo:42862:1,2013-12-05T04:17:00Z,27.5700,-92.3960,66.1,336.0,2.0,-0.6,'1111122,1111122,1111122' 
ADCP,ioos:station:wmo:42862:1,2013-12-05T04:47:00Z,27.5700,-92.3960,66.1,30.0,3.8,0.0,'1111122,1111122,1114422' 
ADCP,ioos:station:wmo:42862:1,2013-12-05T05:17:00Z,27.5700,-92.3960,66.1,359.0,4.6,-1.7,'1111122,1111122,1111122' 
ADCP,ioos:station:wmo:42862:1,2013-12-05T05:47:00Z,27.5700,-92.3960,66.1,4.0,4.0,-1.3,'1111122,1111122,1111122' 
ADCP,ioos:station:wmo:42862:1,2013-12-05T06:17:00Z,27.5700,-92.3960,66.1,355.0,3.6,-0.3,'1111122,1111122,1111122' 
ADCP,ioos:station:wmo:42862:1,2013-12-05T08:37:00Z,27.5700,-92.3960,66.1,44.0,4.9,-1.1,'1111122,1111122,1111122' 
ADCP,ioos:station:wmo:42862:1,2013-12-05T09:07:00Z,27.5700,-92.3960,66.1,64.0,5.2,-1.1,'1111122,1111122,1111122' 
ADCP,ioos:station:wmo:42862:1,2013-12-05T09:47:00Z,27.5700,-92.3960,66.1,63.0,4.2,-0.4,'1111122,1111122,1111122' 
ADCP,ioos:station:wmo:42862:1,2013-12-05T10:17:00Z,27.5700,-92.3960,66.1,64.0,5.2,-0.9,'1111122,1111122,1111122' 
ADCP,ioos:station:wmo:42862:1,2013-12-05T10:47:00Z,27.5700,-92.3960,66.1,67.0,5.6,-0.7,'1111122,1111122,1111122' 
ADCP,ioos:station:wmo:42862:1,2013-12-05T11:17:00Z,27.5700,-92.3960,66.1,101.0,6.2,-0.6,'1111122,1111122,1111122' 
ADCP,ioos:station:wmo:42862:1,2013-12-05T11:47:00Z,27.5700,-92.3960,66.1,64.0,5.8,-0.9,'1111122,1111122,1111122' 
ADCP,ioos:station:wmo:42862:1,2013-12-05T12:07:00Z,27.5700,-92.3960,66.1,43.0,4.8,-0.9,'1111122,1111122,1111122' 
ADCP,ioos:station:wmo:42862:1,2013-12-05T12:47:00Z,27.5700,-92.3960,66.1,78.0,6.6,-3.3,'1111122,1111122,1111122' 
ADCP,ioos:station:wmo:42862:1,2013-12-05T13:17:00Z,27.5700,-92.3960,66.1,67.0,6.4,-2.4,'1111122,1111122,1111122' 
ADCP,ioos:station:wmo:42862:1,2013-12-05T13:47:00Z,27.5700,-92.3960,66.1,66.0,5.5,-2.3,'1111122,1111122,1111122' 
ADCP,ioos:station:wmo:42862:1,2013-12-05T14:17:00Z,27.5700,-92.3960,66.1,48.0,5.7,-0.8,'1111122,1111122,1111122' 
ADCP,ioos:station:wmo:42862:1,2013-12-05T14:47:00Z,27.5700,-92.3960,66.1,101.0,4.7,-2.2,'1111122,1111122,1111122' 
ADCP,ioos:station:wmo:42862:1,2013-12-05T15:47:00Z,27.5700,-92.3960,66.1,69.0,4.0,-2.2,'1111122,1111122,1111122' 
ADCP,ioos:station:wmo:42862:1,2013-12-05T16:07:00Z,27.5700,-92.3960,66.1,32.0,1.5,-1.4,'1111122,1111122,1111122' 
ADCP,ioos:station:wmo:42862:1,2013-12-05T16:47:00Z,27.5700,-92.3960,66.1,67.0,2.6,-1.7,'1111122,1111122,1111122' 
ADCP,ioos:station:wmo:42862:1,2013-12-05T17:17:00Z,27.5700,-92.3960,66.1,90.0,1.3,-0.9,'1111122,1111122,1111122' 
ADCP,ioos:station:wmo:42862:1,2013-12-05T17:47:00Z,27.5700,-92.3960,66.1,9.0,0.6,-1.8,'1111122,1111122,1111122' 
ADCP,ioos:station:wmo:42862:1,2013-12-05T18:07:00Z,27.5700,-92.3960,66.1,337.0,0.8,-1.1,'1111122,1111122,1111122' 
ADCP,ioos:station:wmo:42862:1,2013-12-05T18:47:00Z,27.5700,-92.3960,66.1,235.0,2.4,-1.9,'1111122,1111122,1111122' 
ADCP,ioos:station:wmo:42862:1,2013-12-05T19:17:00Z,27.5700,-92.3960,66.1,21.0,0.9,-1.5,'1111122,1111122,1111122' 
ADCP,ioos:station:wmo:42862:1,2013-12-05T19:47:00Z,27.5700,-92.3960,66.1,167.0,1.3,-2.2,'1111122,1111122,1111122' 
ADCP,ioos:station:wmo:42862:1,2013-12-05T20:17:00Z,27.5700,-92.3960,66.1,315.0,0.7,-1.6,'1111122,1111122,1111122' 
ADCP,ioos:station:wmo:42862:1,2013-12-05T20:47:00Z,27.5700,-92.3960,66.1,180.0,0.1,-1.8,'1111122,1111122,1111122' 
ADCP,ioos:station:wmo:42862:1,2013-12-05T21:17:00Z,27.5700,-92.3960,66.1,163.0,1.0,-1.6,'1113322,1111122,1111122' 
ADCP,ioos:station:wmo:42862:1,2013-12-05T21:47:00Z,27.5700,-92.3960,66.1,309.0,0.6,-1.1,'1111122,1111122,1111122' 
ADCP,ioos:station:wmo:42862:1,2013-12-05T22:07:00Z,27.5700,-92.3960,66.1,13.0,2.6,-1.5,'1111122,1111122,1111122' 
ADCP,ioos:station:wmo:42862:1,2013-12-05T22:47:00Z,27.5700,-92.3960,66.1,355.0,2.5,-1.1,'1111122,1111122,1111122' 
ADCP,ioos:station:wmo:42862:1,2013-12-05T23:07:00Z,27.5700,-92.3960,66.1,27.0,1.8,-1.6,'1111122,1111122,1111122' 
ADCP,ioos:station:wmo:42862:1,2013-12-05T23:47:00Z,27.5700,-92.3960,66.1,31.0,1.7,0.4,'1111122,1111122,1111122' 
ADCP,ioos:station:wmo:42862:1,2013-12-06T00:17:00Z,27.5700,-92.3960,66.1,4.0,1.5,-0.4,'1111122,1111122,1111122' 
ADCP,ioos:station:wmo:42862:1,2013-12-06T00:37:00Z,27.5700,-92.3960,66.1,56.0,4.7,-1.1,'1111122,1111122,1111122' 
ADCP,ioos:station:wmo:42862:1,2013-12-06T01:27:00Z,27.5700,-92.3960,66.1,74.0,5.5,1.8,'1111122,1111122,1111122' 
ADCP,ioos:station:wmo:42862:1,2013-12-06T01:47:00Z,27.5700,-92.3960,66.1,54.0,6.1,1.7,'1111122,1111122,1111122' 
ADCP,ioos:station:wmo:42862:1,2013-12-06T02:17:00Z,27.5700,-92.3960,66.1,76.0,2.9,0.9,'1111122,1111122,1111122' 
ADCP,ioos:station:wmo:42862:1,2013-12-06T02:47:00Z,27.5700,-92.3960,66.1,23.0,6.5,0.2,'1111122,1111122,1111122' 
ADCP,ioos:station:wmo:42862:1,2013-12-06T03:17:00Z,27.5700,-92.3960,66.1,5.0,5.2,0.0,'1111122,1111122,1114422' 
ADCP,ioos:station:wmo:42862:1,2013-12-06T03:47:00Z,27.5700,-92.3960,66.1,33.0,8.2,0.4,'1111122,1111122,1111122' 
ADCP,ioos:station:wmo:42862:1,2013-12-06T04:07:00Z,27.5700,-92.3960,66.1,61.0,6.0,-0.3,'1111122,1111122,1111122' 
ADCP,ioos:station:wmo:42862:1,2013-12-06T04:47:00Z,27.5700,-92.3960,66.1,47.0,6.9,-0.3,'1111122,1111122,1111122' 
ADCP,ioos:station:wmo:42862:1,2013-12-06T05:17:00Z,27.5700,-92.3960,66.1,48.0,9.3,0.0,'1111122,1111122,1114422' 
ADCP,ioos:station:wmo:42862:1,2013-12-06T05:47:00Z,27.5700,-92.3960,66.1,44.0,8.9,-0.6,'1111122,1111122,1111122' 
ADCP,ioos:station:wmo:42862:1,2013-12-06T06:07:00Z,27.5700,-92.3960,66.1,59.0,9.2,-0.4,'1111122,1111122,1111122' 
ADCP,ioos:station:wmo:42862:1,2013-12-06T06:47:00Z,27.5700,-92.3960,66.1,60.0,7.3,-0.8,'1111122,1111122,1111122' 
ADCP,ioos:station:wmo:42862:1,2013-12-06T07:17:00Z,27.5700,-92.3960,66.1,73.0,4.7,-0.3,'1111122,1111122,1111122' 
ADCP,ioos:station:wmo:42862:1,2013-12-06T07:47:00Z,27.5700,-92.3960,66.1,94.0,4.3,-1.2,'1111122,1111122,1111122' 
ADCP,ioos:station:wmo:42862:1,2013-12-06T08:17:00Z,27.5700,-92.3960,66.1,75.0,5.0,-0.5,'1111122,1111122,1111122' 
ADCP,ioos:station:wmo:42862:1,2013-12-06T08:47:00Z,27.5700,-92.3960,66.1,82.0,6.2,-0.3,'1111122,1111122,1111122' 
ADCP,ioos:station:wmo:42862:1,2013-12-06T09:17:00Z,27.5700,-92.3960,66.1,82.0,7.7,-0.5,'1111122,1111122,1111122' 
ADCP,ioos:station:wmo:42862:1,2013-12-06T09:47:00Z,27.5700,-92.3960,66.1,94.0,7.4,0.0,'1111122,1111122,1114422' 
ADCP,ioos:station:wmo:42862:1,2013-12-06T10:17:00Z,27.5700,-92.3960,66.1,103.0,6.9,0.0,'1111122,1111122,1114422' 
ADCP,ioos:station:wmo:42862:1,2013-12-06T10:47:00Z,27.5700,-92.3960,66.1,105.0,8.6,0.1,'1111122,1111122,1111122' 
ADCP,ioos:station:wmo:42862:1,2013-12-06T11:17:00Z,27.5700,-92.3960,66.1,60.0,5.6,-0.8,'1111122,1111122,1111122' 
ADCP,ioos:station:wmo:42862:1,2013-12-06T11:47:00Z,27.5700,-92.3960,66.1,102.0,6.9,0.3,'1111122,1111122,1111122' 
ADCP,ioos:station:wmo:42862:1,2013-12-06T12:07:00Z,27.5700,-92.3960,66.1,103.0,4.9,0.2,'1111122,1111122,1111122' 
ADCP,ioos:station:wmo:42862:1,2013-12-06T12:47:00Z,27.5700,-92.3960,66.1,90.0,3.6,-1.5,'1111122,1111122,1111122' 
ADCP,ioos:station:wmo:42862:1,2013-12-06T13:17:00Z,27.5700,-92.3960,66.1,102.0,8.4,-0.3,'1111122,1111122,1111122' 
ADCP,ioos:station:wmo:42862:1,2013-12-06T14:47:00Z,27.5700,-92.3960,66.1,90.0,6.0,-0.6,'1111122,1111122,1111122' 
ADCP,ioos:station:wmo:42862:1,2013-12-06T15:47:00Z,27.5700,-92.3960,66.1,75.0,3.9,-0.9,'1111122,1111122,1111122' 
ADCP,ioos:station:wmo:42862:1,2013-12-06T16:17:00Z,27.5700,-92.3960,66.1,70.0,4.8,-1.5,'1111122,1111122,1111122' 
ADCP,ioos:station:wmo:42862:1,2013-12-06T16:47:00Z,27.5700,-92.3960,66.1,81.0,5.2,-0.8,'1111122,1111122,1111122' 
ADCP,ioos:station:wmo:42862:1,2013-12-06T17:17:00Z,27.5700,-92.3960,66.1,112.0,5.2,-1.0,'1111122,1111122,1111122' 
ADCP,ioos:station:wmo:42862:1,2013-12-06T17:47:00Z,27.5700,-92.3960,66.1,51.0,3.8,-0.7,'1111122,1111122,1111122' 
ADCP,ioos:station:wmo:42862:1,2013-12-06T18:17:00Z,27.5700,-92.3960,66.1,71.0,5.9,-0.8,'1111122,1111122,1111122' 
ADCP,ioos:station:wmo:42862:1,2013-12-06T18:47:00Z,27.5700,-92.3960,66.1,62.0,4.3,-0.8,'1111122,1111122,1111122' 
ADCP,ioos:station:wmo:42862:1,2013-12-06T19:17:00Z,27.5700,-92.3960,66.1,76.0,2.9,-1.2,'1111122,1111122,1111122' 
ADCP,ioos:station:wmo:42862:1,2013-12-06T19:47:00Z,27.5700,-92.3960,66.1,81.0,5.3,-1.4,'1111122,1111122,1111122' 
ADCP,ioos:station:wmo:42862:1,2013-12-06T20:17:00Z,27.5700,-92.3960,66.1,90.0,4.7,-0.7,'1111122,1111122,1111122' 
ADCP,ioos:station:wmo:42862:1,2013-12-06T21:07:00Z,27.5700,-92.3960,66.1,132.0,2.8,-0.9,'1111122,1111122,1111122' 
ADCP,ioos:station:wmo:42862:1,2013-12-06T21:17:00Z,27.5700,-92.3960,66.1,72.0,3.8,-1.3,'1111122,1111122,1111122' 
ADCP,ioos:station:wmo:42862:1,2013-12-06T21:47:00Z,27.5700,-92.3960,66.1,84.0,3.6,-1.0,'1111122,1111122,1111122' 
ADCP,ioos:station:wmo:42862:1,2013-12-06T22:07:00Z,27.5700,-92.3960,66.1,90.0,5.2,-1.8,'1111122,1111122,1111122' 
ADCP,ioos:station:wmo:42862:1,2013-12-06T22:47:00Z,27.5700,-92.3960,66.1,85.0,5.0,-2.0,'1111122,1111122,1111122' 
ADCP,ioos:station:wmo:42862:1,2013-12-06T23:07:00Z,27.5700,-92.3960,66.1,70.0,4.1,-1.3,'1111122,1111122,1111122' 
ADCP,ioos:station:wmo:42862:1,2013-12-06T23:47:00Z,27.5700,-92.3960,66.1,82.0,2.9,-0.1,'1111122,1111122,1111122' 
ADCP,ioos:station:wmo:42862:1,2013-12-07T00:17:00Z,27.5700,-92.3960,66.1,103.0,6.7,0.2,'1111122,1111122,1111122' 
ADCP,ioos:station:wmo:42862:1,2013-12-07T00:37:00Z,27.5700,-92.3960,66.1,86.0,6.4,1.0,'1111122,1111122,1111122' 
ADCP,ioos:station:wmo:42862:1,2013-12-07T01:17:00Z,27.5700,-92.3960,66.1,75.0,6.1,0.5,'1111122,1111122,1111122' 
ADCP,ioos:station:wmo:42862:1,2013-12-07T01:47:00Z,27.5700,-92.3960,66.1,63.0,9.4,1.6,'1111122,1111122,1111122' 
ADCP,ioos:station:wmo:42862:1,2013-12-07T02:27:00Z,27.5700,-92.3960,66.1,63.0,4.7,0.2,'1111122,1111122,1111122' 
ADCP,ioos:station:wmo:42862:1,2013-12-07T03:07:00Z,27.5700,-92.3960,66.1,80.0,6.5,1.7,'1111122,1111122,1111122' 
ADCP,ioos:station:wmo:42862:1,2013-12-07T03:27:00Z,27.5700,-92.3960,66.1,87.0,5.0,1.4,'1111122,1111122,1111122' 
ADCP,ioos:station:wmo:42862:1,2013-12-07T04:07:00Z,27.5700,-92.3960,66.1,73.0,7.6,0.5,'1111122,1111122,1111122' 
ADCP,ioos:station:wmo:42862:1,2013-12-07T04:27:00Z,27.5700,-92.3960,66.1,86.0,5.9,0.6,'1111122,1111122,1111122' 
ADCP,ioos:station:wmo:42862:1,2013-12-07T05:07:00Z,27.5700,-92.3960,66.1,78.0,5.8,0.7,'1111122,1111122,1111122' 
ADCP,ioos:station:wmo:42862:1,2013-12-07T05:27:00Z,27.5700,-92.3960,66.1,92.0,5.0,0.2,'1111122,1111122,1111122' 
ADCP,ioos:station:wmo:42862:1,2013-12-07T05:57:00Z,27.5700,-92.3960,66.1,96.0,4.5,0.3,'1111122,1111122,1111122' 
ADCP,ioos:station:wmo:42862:1,2013-12-07T06:27:00Z,27.5700,-92.3960,66.1,66.0,3.6,0.7,'1111122,1111122,1111122' 
ADCP,ioos:station:wmo:42862:1,2013-12-07T07:07:00Z,27.5700,-92.3960,66.1,72.0,6.3,0.7,'1111122,1111122,1111122' 
ADCP,ioos:station:wmo:42862:1,2013-12-07T07:27:00Z,27.5700,-92.3960,66.1,60.0,6.0,0.2,'1111122,1111122,1111122' 
ADCP,ioos:station:wmo:42862:1,2013-12-07T08:07:00Z,27.5700,-92.3960,66.1,80.0,7.8,0.0,'1111122,1111122,1114422' 
ADCP,ioos:station:wmo:42862:1,2013-12-07T08:27:00Z,27.5700,-92.3960,66.1,73.0,9.4,0.6,'1111122,1111122,1111122' 
ADCP,ioos:station:wmo:42862:1,2013-12-07T08:57:00Z,27.5700,-92.3960,66.1,84.0,8.1,1.8,'1111122,1111122,1111122' 
ADCP,ioos:station:wmo:42862:1,2013-12-07T09:27:00Z,27.5700,-92.3960,66.1,100.0,11.4,1.7,'1111122,1111122,1111122' 
ADCP,ioos:station:wmo:42862:1,2013-12-07T09:57:00Z,27.5700,-92.3960,66.1,99.0,8.8,1.8,'1111122,1111122,1111122' 
ADCP,ioos:station:wmo:42862:1,2013-12-07T10:27:00Z,27.5700,-92.3960,66.1,100.0,7.2,0.2,'1111122,1111122,1111122' 
ADCP,ioos:station:wmo:42862:1,2013-12-07T10:57:00Z,27.5700,-92.3960,66.1,110.0,8.2,0.0,'1111122,1111122,1114422' 
ADCP,ioos:station:wmo:42862:1,2013-12-07T11:27:00Z,27.5700,-92.3960,66.1,128.0,6.8,0.0,'1111122,1111122,1114422' 
ADCP,ioos:station:wmo:42862:1,2013-12-07T12:07:00Z,27.5700,-92.3960,66.1,95.0,7.6,0.0,'1111122,1111122,1114422' 
ADCP,ioos:station:wmo:42862:1,2013-12-07T12:27:00Z,27.5700,-92.3960,66.1,91.0,6.2,-0.3,'1111122,1111122,1111122' 
ADCP,ioos:station:wmo:42862:1,2013-12-07T13:27:00Z,27.5700,-92.3960,66.1,85.0,3.4,-2.8,'1111122,1111122,1111122' 
ADCP,ioos:station:wmo:42862:1,2013-12-07T14:07:00Z,27.5700,-92.3960,66.1,101.0,3.3,-2.8,'1111122,1111122,1111122' 
ADCP,ioos:station:wmo:42862:1,2013-12-07T14:57:00Z,27.5700,-92.3960,66.1,88.0,3.3,-3.0,'1111122,1111122,1111122' 
ADCP,ioos:station:wmo:42862:1,2013-12-07T15:27:00Z,27.5700,-92.3960,66.1,4.0,3.1,-3.4,'1111122,1111122,1111122' 
ADCP,ioos:station:wmo:42862:1,2013-12-07T15:57:00Z,27.5700,-92.3960,66.1,13.0,4.7,-3.4,'1111122,1111122,1111122' 
ADCP,ioos:station:wmo:42862:1,2013-12-07T16:27:00Z,27.5700,-92.3960,66.1,34.0,6.1,-2.3,'1111122,1111122,1111122' 
ADCP,ioos:station:wmo:42862:1,2013-12-07T17:07:00Z,27.5700,-92.3960,66.1,28.0,4.5,-1.9,'1111122,1111122,1111122' 
ADCP,ioos:station:wmo:42862:1,2013-12-07T17:27:00Z,27.5700,-92.3960,66.1,68.0,4.5,-2.5,'1111122,1111122,1111122' 
ADCP,ioos:station:wmo:42862:1,2013-12-07T18:07:00Z,27.5700,-92.3960,66.1,231.0,0.6,-2.1,'1111122,1111122,1111122' 
ADCP,ioos:station:wmo:42862:1,2013-12-07T18:27:00Z,27.5700,-92.3960,66.1,40.0,2.6,-1.6,'1111122,1111122,1111122' 
ADCP,ioos:station:wmo:42862:1,2013-12-07T19:57:00Z,27.5700,-92.3960,66.1,68.0,3.5,-1.5,'1111122,1111122,1111122' 
ADCP,ioos:station:wmo:42862:1,2013-12-07T20:27:00Z,27.5700,-92.3960,66.1,45.0,5.8,-1.3,'1111122,1111122,1111122' 
ADCP,ioos:station:wmo:42862:1,2013-12-07T21:07:00Z,27.5700,-92.3960,66.1,357.0,5.1,-1.7,'1111122,1111122,1111122' 
ADCP,ioos:station:wmo:42862:1,2013-12-07T21:27:00Z,27.5700,-92.3960,66.1,31.0,5.2,-2.4,'1111122,1111122,1111122' 
ADCP,ioos:station:wmo:42862:1,2013-12-07T22:07:00Z,27.5700,-92.3960,66.1,61.0,5.4,-0.8,'1111122,1111122,1111122' 
ADCP,ioos:station:wmo:42862:1,2013-12-07T22:27:00Z,27.5700,-92.3960,66.1,4.0,5.6,-0.8,'1111122,1111122,1111122' 
ADCP,ioos:station:wmo:42862:1,2013-12-07T23:07:00Z,27.5700,-92.3960,66.1,54.0,4.1,-1.5,'1111122,1111122,1111122' 
ADCP,ioos:station:wmo:42862:1,2013-12-07T23:27:00Z,27.5700,-92.3960,66.1,36.0,3.6,-1.2,'1111122,1111122,1111122' 
ADCP,ioos:station:wmo:42862:1,2013-12-08T00:07:00Z,27.5700,-92.3960,66.1,27.0,4.4,-1.0,'1111122,1111122,1111122' 
ADCP,ioos:station:wmo:42862:1,2013-12-08T00:27:00Z,27.5700,-92.3960,66.1,52.0,5.4,-1.0,'1111122,1111122,1111122' 
ADCP,ioos:station:wmo:42862:1,2013-12-08T00:57:00Z,27.5700,-92.3960,66.1,65.0,6.4,-1.0,'1111122,1111122,1111122' 
ADCP,ioos:station:wmo:42862:1,2013-12-08T01:27:00Z,27.5700,-92.3960,66.1,78.0,5.5,-0.7,'1111122,1111122,1111122' 
ADCP,ioos:station:wmo:42862:1,2013-12-08T02:07:00Z,27.5700,-92.3960,66.1,85.0,8.6,-0.2,'1111122,1111122,1111122' 
ADCP,ioos:station:wmo:42862:1,2013-12-08T02:17:00Z,27.5700,-92.3960,66.1,92.0,7.8,-0.6,'1111122,1111122,1111122' 
ADCP,ioos:station:wmo:42862:1,2013-12-08T03:07:00Z,27.5700,-92.3960,66.1,70.0,6.4,-0.6,'1111122,1111122,1111122' 
ADCP,ioos:station:wmo:42862:1,2013-12-08T03:27:00Z,27.5700,-92.3960,66.1,108.0,8.8,-0.4,'1111122,1111122,1111122' 
ADCP,ioos:station:wmo:42862:1,2013-12-08T04:07:00Z,27.5700,-92.3960,66.1,91.0,7.1,-0.2,'1111122,1111122,1111122' 
ADCP,ioos:station:wmo:42862:1,2013-12-08T04:57:00Z,27.5700,-92.3960,66.1,101.0,7.0,0.0,'1111122,1111122,1114422' 
ADCP,ioos:station:wmo:42862:1,2013-12-08T05:27:00Z,27.5700,-92.3960,66.1,103.0,7.1,-0.4,'1111122,1111122,1111122' 
ADCP,ioos:station:wmo:42862:1,2013-12-08T06:27:00Z,27.5700,-92.3960,66.1,119.0,2.5,-1.5,'1111122,1111122,1111122' 
ADCP,ioos:station:wmo:42862:1,2013-12-08T07:07:00Z,27.5700,-92.3960,66.1,225.0,2.4,-1.3,'1111122,1111122,1111122' 
ADCP,ioos:station:wmo:42862:1,2013-12-08T07:27:00Z,27.5700,-92.3960,66.1,168.0,2.4,-1.4,'1111122,1111122,1111122' 
ADCP,ioos:station:wmo:42862:1,2013-12-08T08:07:00Z,27.5700,-92.3960,66.1,270.0,1.0,-1.2,'1113322,1111122,1111122' 
ADCP,ioos:station:wmo:42862:1,2013-12-08T08:27:00Z,27.5700,-92.3960,66.1,192.0,5.6,-0.8,'1111122,1111122,1111122' 
ADCP,ioos:station:wmo:42862:1,2013-12-08T09:07:00Z,27.5700,-92.3960,66.1,210.0,3.2,-1.6,'1111122,1111122,1111122' 
ADCP,ioos:station:wmo:42862:1,2013-12-08T09:27:00Z,27.5700,-92.3960,66.1,218.0,4.6,-1.2,'1111122,1111122,1111122' 
ADCP,ioos:station:wmo:42862:1,2013-12-08T10:07:00Z,27.5700,-92.3960,66.1,226.0,5.0,0.0,'1111122,1111122,1114422' 
ADCP,ioos:station:wmo:42862:1,2013-12-08T10:27:00Z,27.5700,-92.3960,66.1,221.0,3.5,-0.2,'1111122,1111122,1111122' 
ADCP,ioos:station:wmo:42862:1,2013-12-08T11:07:00Z,27.5700,-92.3960,66.1,255.0,5.9,-1.5,'1111122,1111122,1111122' 
ADCP,ioos:station:wmo:42862:1,2013-12-08T11:27:00Z,27.5700,-92.3960,66.1,231.0,5.9,-1.4,'1111122,1111122,1111122' 
ADCP,ioos:station:wmo:42862:1,2013-12-08T12:07:00Z,27.5700,-92.3960,66.1,244.0,5.0,-0.8,'1111122,1111122,1111122' 
ADCP,ioos:station:wmo:42862:1,2013-12-08T13:07:00Z,27.5700,-92.3960,66.1,280.0,6.1,-0.3,'1111122,1111122,1111122' 
ADCP,ioos:station:wmo:42862:1,2013-12-08T13:27:00Z,27.5700,-92.3960,66.1,252.0,6.1,-0.2,'1111122,1111122,1111122' 
ADCP,ioos:station:wmo:42862:1,2013-12-08T14:07:00Z,27.5700,-92.3960,66.1,256.0,5.8,-1.5,'1111122,1111122,1111122' 
ADCP,ioos:station:wmo:42862:1,2013-12-08T14:27:00Z,27.5700,-92.3960,66.1,272.0,3.6,-2.5,'1111122,1111122,1111122' 
ADCP,ioos:station:wmo:42862:1,2013-12-08T14:57:00Z,27.5700,-92.3960,66.1,242.0,1.7,-1.2,'1111122,1111122,1111122' 
ADCP,ioos:station:wmo:42862:1,2013-12-08T15:27:00Z,27.5700,-92.3960,66.1,291.0,3.1,-2.1,'1111122,1111122,1111122' 
ADCP,ioos:station:wmo:42862:1,2013-12-08T16:07:00Z,27.5700,-92.3960,66.1,274.0,6.0,-3.9,'1111122,1111122,1111122' 
ADCP,ioos:station:wmo:42862:1,2013-12-08T16:27:00Z,27.5700,-92.3960,66.1,312.0,5.1,-3.7,'1111122,1111122,1111122' 
ADCP,ioos:station:wmo:42862:1,2013-12-08T17:07:00Z,27.5700,-92.3960,66.1,291.0,5.3,-3.5,'1111122,1111122,1111122' 
ADCP,ioos:station:wmo:42862:1,2013-12-08T17:27:00Z,27.5700,-92.3960,66.1,316.0,5.8,-3.5,'1111122,1111122,1111122' 
ADCP,ioos:station:wmo:42862:1,2013-12-08T18:27:00Z,27.5700,-92.3960,66.1,336.0,8.7,-4.3,'1111122,1111122,1111122' 
ADCP,ioos:station:wmo:42862:1,2013-12-08T19:07:00Z,27.5700,-92.3960,66.1,345.0,7.3,-3.0,'1111122,1111122,1111122' 
ADCP,ioos:station:wmo:42862:1,2013-12-08T23:27:00Z,27.5700,-92.3960,66.1,54.0,8.4,0.7,'1111122,1111122,1111122' 
ADCP,ioos:station:wmo:42862:1,2013-12-09T00:07:00Z,27.5700,-92.3960,66.1,57.0,5.6,1.4,'1111122,1111122,1111122' 
ADCP,ioos:station:wmo:42862:1,2013-12-09T00:27:00Z,27.5700,-92.3960,66.1,70.0,4.4,0.0,'1111122,1111122,1114422' 
ADCP,ioos:station:wmo:42862:1,2013-12-09T00:57:00Z,27.5700,-92.3960,66.1,72.0,6.2,-0.1,'1111122,1111122,1111122' 
ADCP,ioos:station:wmo:42862:1,2013-12-09T01:27:00Z,27.5700,-92.3960,66.1,81.0,5.8,0.0,'1111122,1111122,1114422' 
ADCP,ioos:station:wmo:42862:1,2013-12-09T02:07:00Z,27.5700,-92.3960,66.1,90.0,6.7,-0.9,'1111122,1111122,1111122' 
ADCP,ioos:station:wmo:42862:1,2013-12-09T02:57:00Z,27.5700,-92.3960,66.1,96.0,8.6,0.1,'1111122,1111122,1111122' 
ADCP,ioos:station:wmo:42862:1,2013-12-09T03:27:00Z,27.5700,-92.3960,66.1,87.0,9.6,0.2,'1111122,1111122,1111122' 
ADCP,ioos:station:wmo:42862:1,2013-12-09T03:57:00Z,27.5700,-92.3960,66.1,115.0,10.5,0.9,'1111122,1111122,1111122' 
ADCP,ioos:station:wmo:42862:1,2013-12-09T06:07:00Z,27.5700,-92.3960,66.1,156.0,12.8,0.1,'1111122,1111122,1111122' 
ADCP,ioos:station:wmo:42862:1,2013-12-09T06:57:00Z,27.5700,-92.3960,66.1,180.0,9.8,-0.3,'1111122,1111122,1111122' 
ADCP,ioos:station:wmo:42862:1,2013-12-09T07:57:00Z,27.5700,-92.3960,66.1,215.0,10.6,-0.7,'1111122,1111122,1111122' 
ADCP,ioos:station:wmo:42862:1,2013-12-09T08:57:00Z,27.5700,-92.3960,66.1,233.0,9.5,0.0,'1111122,1111122,1114422' 
ADCP,ioos:station:wmo:42862:1,2013-12-09T10:07:00Z,27.5700,-92.3960,66.1,223.0,8.8,-0.7,'1111122,1111122,1111122' 
ADCP,ioos:station:wmo:42862:1,2013-12-09T11:57:00Z,27.5700,-92.3960,66.1,265.0,7.8,-1.4,'1111122,1111122,1111122' 
ADCP,ioos:station:wmo:42862:1,2013-12-09T13:07:00Z,27.5700,-92.3960,66.1,292.0,6.2,-1.1,'1111122,1111122,1111122' 
ADCP,ioos:station:wmo:42862:1,2013-12-09T13:47:00Z,27.5700,-92.3960,66.1,303.0,5.1,-2.2,'1111122,1111122,1111122' 
ADCP,ioos:station:wmo:42862:1,2013-12-09T18:27:00Z,27.5700,-92.3960,66.1,59.0,9.4,-2.7,'1111122,1111122,1111122' 
ADCP,ioos:station:wmo:42862:1,2013-12-09T19:27:00Z,27.5700,-92.3960,66.1,47.0,9.6,-3.4,'1111122,1111122,1111122' 
ADCP,ioos:station:wmo:42862:1,2013-12-09T20:27:00Z,27.5700,-92.3960,66.1,57.0,10.9,-2.7,'1111122,1111122,1111122' 
ADCP,ioos:station:wmo:42862:1,2013-12-09T21:27:00Z,27.5700,-92.3960,66.1,66.0,12.6,-2.3,'1111122,1111122,1111122' 
ADCP,ioos:station:wmo:42862:1,2013-12-09T22:27:00Z,27.5700,-92.3960,66.1,70.0,14.6,-2.1,'1111122,1111122,1111122' 
ADCP,ioos:station:wmo:42862:1,2013-12-09T23:27:00Z,27.5700,-92.3960,66.1,88.0,12.6,-1.7,'1111122,1111122,1111122' 
ADCP,ioos:station:wmo:42862:1,2013-12-10T01:27:00Z,27.5700,-92.3960,66.1,122.0,18.1,-1.5,'1111122,1111122,1111122' 
ADCP,ioos:station:wmo:42862:1,2013-12-10T02:27:00Z,27.5700,-92.3960,66.1,118.0,16.6,-1.0,'1111122,1111122,1111122' 
ADCP,ioos:station:wmo:42862:1,2013-12-10T03:27:00Z,27.5700,-92.3960,66.1,117.0,15.7,0.0,'1111122,1111122,1114422' 
ADCP,ioos:station:wmo:42862:1,2013-12-10T04:27:00Z,27.5700,-92.3960,66.1,120.0,13.8,-0.7,'1111122,1111122,1111122' 
ADCP,ioos:station:wmo:42862:1,2013-12-10T09:27:00Z,27.5700,-92.3960,66.1,197.0,10.7,0.5,'1111122,1111122,1111122' 